カタログに戻る

CZ-2D R/B

運用中SSO
NORAD 53878·ROCKET BODY·🇨🇳 China

打ち上げ Sep 20, 2022 から Jiuquan Satellite Launch Center

Loading…

次のパス (今後24時間)

TLE

最新Source: Space-Track

元期: Sep 14, 2026, 11:27 UTC

1 53878U 22115B   26257.47743112  .00000582  00000-0  92217-4 0  9993
2 53878  98.4070 336.1881 0116357 149.1140 211.6980 14.71957678213697

AllMySatでCZ-2D R/Bをリアルタイム追跡

Download on the App Store